Wind_Speed
65 67 70 72 73 75 77 78 79 81 81 81 81 81 81 81 81 81 81 82 82 83 83 84 85 86 86 87 88 90 91 93 94 92 93 92 91 90 90 90 90 90 89
68 70 72 74 76 77 79 80 81 81 82 82 82 82 82 82 82 83 83 84 84 85 85 86 87 87 88 88 89 90 91 92 94 93 91 93 93 93 91 91 91 91 91
71 73 75 76 78 80 81 81 81 82 82 82 82 83 83 84 84 85 85 86 85 85 85 85 85 85 84 84 85 86 87 88 90 91 91 92 94 95 95 94 93 92 92
73 75 77 78 80 81 81 81 81 82 82 82 83 84 84 85 85 85 85 84 83 82 80 79 78 77 76 76 76 77 78 79 81 83 84 85 88 91 94 95 95 94 94
76 77 78 79 80 80 81 81 81 82 83 83 83 83 83 83 82 80 79 77 74 72 71 69 69 69 69 69 70 70 71 71 73 74 74 75 77 81 86 89 91 92 93
77 77 78 79 79 80 80 81 81 82 82 81 80 79 78 76 74 72 69 67 65 65 64 65 65 66 66 67 67 67 67 67 67 67 67 67 68 71 75 79 82 84 86
76 77 77 78 79 79 80 80 80 80 79 77 75 73 70 68 66 64 63 62 62 63 63 64 64 65 66 65 64 63 62 62 62 62 60 59 60 62 65 68 72 75 76
75 75 76 77 78 79 78 78 77 75 73 71 68 66 63 62 61 61 61 61 62 63 64 64 64 64 63 62 59 57 55 54 55 55 53 52 52 53 55 58 61 65 67
74 75 76 76 76 76 75 74 72 71 68 65 63 61 60 60 60 61 62 62 62 63 63 63 63 61 60 58 56 52 50 48 48 48 47 46 46 47 48 50 52 55 56
73 74 74 74 73 73 72 70 68 66 63 61 60 59 59 60 61 62 62 62 62 61 61 60 59 58 56 54 51 48 45 44 43 43 43 44 44 45 46 47 48 49 49
71 71 71 71 70 69 68 66 64 62 60 59 59 59 60 60 61 61 62 62 62 60 59 57 56 54 52 49 48 46 43 42 41 41 42 43 44 45 47 48 49 50 49
69 68 68 67 66 65 64 62 61 59 59 58 59 59 60 60 60 61 61 61 60 59 57 55 53 51 48 46 45 44 43 42 42 42 42 43 45 46 48 49 51 52 51
65 65 64 64 63 62 61 60 59 59 59 59 59 59 59 59 60 60 60 59 59 57 55 53 51 49 47 46 46 45 44 44 44 44 45 45 47 48 49 51 52 53 54
62 61 61 61 61 60 59 59 59 59 59 59 59 59 58 58 59 60 59 59 57 56 54 51 50 48 47 46 45 45 45 45 45 45 46 47 48 49 50 51 52 54 55
59 59 60 60 59 59 59 59 59 59 59 59 59 59 59 59 60 60 59 58 57 55 52 49 47 46 44 44 44 44 44 45 45 46 47 47 48 48 49 50 50 52 53
59 59 59 59 59 59 59 59 59 60 60 60 60 60 61 61 61 60 59 57 56 53 51 48 45 43 41 41 41 42 43 44 45 45 45 45 44 44 44 44 46 47 49
58 59 59 59 59 59 59 60 61 61 62 62 62 63 63 63 61 60 58 56 54 52 49 45 42 40 39 39 39 39 40 41 42 42 42 41 40 40 39 40 42 44 45
59 59 60 60 60 61 61 62 63 63 64 65 65 65 65 63 61 58 56 53 52 50 46 43 40 38 36 36 36 37 38 39 39 39 39 37 36 35 36 37 38 39 40
60 60 61 61 62 63 63 64 65 66 66 67 67 67 65 62 59 57 54 52 50 47 44 40 37 35 34 34 34 35 36 36 36 36 35 34 33 33 33 34 35 36 37
61 61 61 62 63 64 65 67 68 68 69 68 67 67 65 61 58 56 53 50 47 43 40 37 35 33 32 31 32 33 33 34 34 34 33 31 30 30 31 31 32 33 33
61 61 62 64 65 66 68 69 70 71 71 70 68 67 64 60 57 55 52 48 44 40 37 34 33 31 29 29 30 30 31 32 31 31 31 29 29 29 29 29 30 30 30
61 62 64 65 67 68 70 72 73 73 73 70 68 65 62 58 55 53 49 45 41 38 34 32 31 29 28 27 27 28 29 29 29 29 29 28 27 27 27 27 28 27 27
62 64 65 66 68 71 73 74 74 73 71 68 65 61 58 55 51 48 44 41 38 35 32 29 28 27 26 26 26 26 26 27 27 27 27 26 26 25 25 25 25 25 24
63 64 66 68 70 72 73 73 72 70 67 63 59 55 52 49 46 43 40 37 35 32 29 27 25 25 24 24 25 25 25 25 25 26 25 25 24 24 23 23 23 22 22
64 65 67 69 71 70 70 69 67 64 60 56 51 47 45 42 40 38 36 33 31 29 27 24 23 22 22 23 23 24 24 24 24 24 24 24 24 23 22 22 21 21 20
64 66 67 67 67 66 65 63 60 55 50 45 41 39 37 36 34 33 31 29 28 26 24 22 21 20 20 21 22 23 23 24 24 24 23 23 23 22 22 21 21 20 19
Wind_Direction
291 291 291 291 292 292 292 292 292 292 292 291 291 291 291 291 290 289 288 288 287 286 285 284 283 282 281 280 278 277 276 274 272 270 269 267 265 264 263 262 262 261 261
291 292 292 292 292 292 292 292 292 292 292 292 293 292 292 292 291 291 291 290 289 289 288 287 286 285 284 282 281 279 278 276 274 271 269 267 265 264 262 260 259 259 258
292 292 292 292 292 293 292 293 293 293 294 294 294 294 294 293 293 293 293 292 292 291 290 289 288 286 285 284 282 281 279 278 276 274 271 268 266 264 262 260 258 256 256
292 293 293 292 292 293 293 293 294 294 295 295 295 295 295 295 294 294 294 293 292 291 291 289 288 287 285 284 282 281 280 279 277 276 274 270 268 265 262 260 258 256 254
292 292 292 292 292 293 294 294 295 295 296 296 296 296 296 295 295 294 294 293 292 291 290 289 288 288 287 286 285 283 282 280 279 277 275 272 270 267 264 261 259 256 254
292 291 292 292 293 293 294 295 295 296 296 296 296 297 296 296 295 295 294 293 292 291 291 291 291 290 289 288 288 287 285 283 281 279 277 274 271 269 266 263 261 258 255
291 291 292 293 293 294 295 295 296 296 297 297 297 297 297 296 296 295 295 294 294 294 294 293 293 292 292 291 290 289 287 286 284 282 280 277 274 270 268 266 263 260 257
291 291 292 293 294 295 295 296 297 297 298 298 298 298 297 297 296 296 296 296 296 296 296 296 295 294 294 292 291 289 288 286 285 284 283 280 277 274 271 268 265 263 260
291 291 292 293 294 295 296 297 298 298 298 299 299 298 298 297 297 297 297 297 298 298 298 298 297 296 295 294 292 290 287 285 284 284 284 282 279 277 275 272 269 267 263
291 292 293 294 295 296 297 298 298 298 298 298 298 298 298 298 298 298 298 299 299 299 299 298 297 296 295 294 292 289 286 283 282 283 284 283 281 279 278 276 274 271 268
291 293 294 295 296 296 297 297 297 297 297 298 298 298 298 298 299 299 300 300 300 300 300 299 297 296 295 293 291 289 287 285 283 283 283 283 282 280 279 279 277 275 273
292 294 294 295 295 296 296 296 296 296 297 297 298 298 299 299 300 300 300 301 301 301 300 299 298 296 294 293 291 290 289 288 287 286 285 284 283 281 281 280 278 277 276
293 293 294 294 295 295 295 295 296 296 297 298 298 299 300 300 300 301 301 301 302 302 301 300 298 296 294 293 292 291 290 290 290 289 288 287 285 284 282 280 278 277 276
293 293 294 294 294 294 294 295 296 296 297 298 299 299 300 301 301 301 301 301 301 301 300 299 296 294 292 291 289 289 289 289 290 290 289 289 288 286 284 281 279 278 276
293 293 293 293 293 293 293 295 295 296 297 298 299 299 300 301 301 301 300 300 300 299 298 296 293 291 290 290 290 290 291 292 293 293 292 291 289 287 285 283 282 280 279
292 292 292 292 292 293 293 294 295 296 297 298 298 299 300 300 300 300 299 299 299 298 297 296 293 290 289 289 291 293 295 296 297 297 296 294 292 289 287 286 285 284 284
291 291 291 291 292 293 294 294 295 296 297 298 298 299 299 300 299 298 297 297 297 297 296 294 292 290 290 290 292 295 298 300 301 300 298 296 294 291 289 288 288 289 289
290 290 290 291 292 293 294 295 295 296 297 298 298 298 299 298 297 296 295 295 295 295 294 292 291 291 290 291 294 298 301 303 304 303 301 299 296 293 291 291 293 293 293
289 289 290 291 292 293 294 294 295 296 296 297 297 296 296 296 295 294 293 293 293 293 292 291 290 290 290 293 297 300 303 305 306 306 305 301 298 295 294 295 296 297 298
288 289 290 291 292 293 294 295 295 296 296 296 295 294 293 293 291 291 291 290 290 289 288 288 288 288 290 294 298 302 305 307 308 309 308 305 302 300 299 299 300 301 301
288 289 290 291 292 293 294 295 295 296 295 294 292 291 289 288 287 287 287 287 286 285 285 285 286 287 289 294 297 302 306 308 309 310 310 308 306 305 303 302 303 304 304
288 289 290 292 293 294 295 295 295 295 294 293 290 287 285 283 282 282 282 282 282 281 281 281 283 284 288 293 297 300 304 308 310 311 312 311 309 309 308 307 306 307 308
289 290 291 292 294 295 296 296 296 295 293 291 288 284 281 279 277 275 275 276 276 276 276 276 278 282 285 290 295 299 303 306 308 310 312 313 312 312 312 312 311 310 310
290 291 292 294 295 296 296 296 296 295 293 289 285 280 276 273 270 268 268 269 269 269 269 271 274 279 284 290 295 299 303 306 307 309 310 312 314 315 316 317 316 315 314
291 292 293 295 297 297 297 298 297 295 292 287 281 275 270 266 263 261 261 261 261 261 262 266 271 276 283 290 296 301 305 308 309 309 310 311 313 314 316 318 319 319 319
291 293 295 297 298 298 299 299 298 296 291 285 277 269 263 258 255 253 252 252 252 252 256 262 267 274 283 291 298 303 306 309 311 311 310 310 311 313 313 314 317 319 320
Height
5691 5686 5681 5676 5671 5665 5660 5654 5648 5642 5635 5629 5623 5617 5611 5606 5600 5595 5589 5584 5578 5573 5568 5563 5558 5553 5549 5545 5542 5539 5536 5532 5533 5543 5545 5547 5549 5552 5555 5557 5560 5564 5569
5674 5669 5663 5657 5652 5646 5640 5634 5628 5621 5615 5608 5602 5595 5589 5583 5578 5572 5566 5560 5554 5548 5542 5537 5531 5527 5522 5517 5513 5510 5507 5503 5502 5509 5516 5516 5517 5519 5523 5527 5531 5535 5541
5656 5651 5645 5639 5633 5626 5620 5614 5607 5601 5594 5587 5580 5573 5567 5560 5554 5548 5542 5535 5529 5522 5516 5510 5505 5499 5494 5489 5485 5481 5478 5475 5472 5474 5482 5484 5485 5487 5489 5495 5500 5505 5511
5638 5632 5626 5620 5613 5607 5600 5593 5587 5580 5573 5566 5559 5551 5544 5537 5531 5524 5518 5511 5504 5498 5491 5485 5480 5474 5469 5464 5460 5456 5452 5450 5446 5445 5448 5452 5453 5453 5455 5460 5466 5472 5480
5619 5613 5607 5600 5593 5587 5580 5573 5567 5560 5552 5545 5537 5529 5521 5514 5508 5501 5495 5489 5483 5476 5470 5464 5458 5453 5447 5442 5438 5434 5430 5427 5423 5420 5421 5422 5424 5423 5423 5426 5432 5439 5448
5600 5594 5587 5580 5574 5567 5560 5554 5547 5539 5532 5524 5516 5508 5500 5493 5486 5480 5474 5469 5463 5458 5452 5446 5440 5434 5428 5423 5418 5413 5409 5404 5401 5398 5398 5398 5398 5397 5396 5397 5400 5408 5419
5581 5574 5568 5561 5554 5547 5541 5534 5526 5519 5511 5503 5496 5488 5480 5473 5467 5461 5456 5451 5446 5440 5434 5428 5422 5415 5409 5404 5399 5394 5389 5384 5380 5377 5377 5376 5375 5375 5374 5376 5375 5378 5386
5562 5555 5548 5541 5535 5528 5521 5513 5506 5499 5492 5484 5477 5470 5463 5456 5451 5445 5440 5435 5429 5423 5417 5410 5403 5397 5390 5385 5381 5377 5372 5368 5362 5359 5358 5357 5356 5354 5353 5353 5353 5356 5362
5543 5536 5529 5522 5515 5508 5501 5494 5487 5480 5473 5466 5460 5453 5447 5441 5435 5429 5424 5419 5413 5407 5400 5393 5385 5379 5373 5367 5363 5360 5357 5353 5348 5345 5343 5341 5339 5338 5336 5335 5336 5337 5342
5524 5517 5510 5503 5496 5489 5482 5475 5468 5462 5456 5450 5444 5438 5432 5426 5419 5413 5407 5402 5397 5391 5384 5377 5369 5363 5357 5351 5347 5344 5342 5339 5336 5333 5330 5327 5325 5323 5321 5320 5319 5320 5322
5504 5498 5491 5484 5477 5470 5464 5457 5451 5446 5440 5435 5429 5423 5417 5411 5404 5398 5391 5385 5380 5374 5368 5362 5355 5348 5343 5337 5332 5329 5327 5325 5323 5320 5318 5315 5312 5309 5307 5305 5304 5303 5305
5486 5480 5473 5466 5460 5453 5447 5441 5436 5430 5425 5420 5414 5408 5402 5395 5389 5383 5376 5369 5363 5358 5352 5346 5340 5334 5329 5324 5320 5316 5313 5311 5309 5307 5304 5301 5298 5296 5293 5291 5288 5287 5288
5468 5461 5455 5449 5443 5437 5431 5426 5420 5415 5410 5404 5399 5393 5387 5381 5374 5367 5361 5355 5348 5342 5337 5331 5325 5320 5316 5312 5307 5304 5301 5298 5295 5293 5290 5287 5284 5281 5278 5275 5273 5271 5270
5450 5444 5438 5432 5427 5421 5416 5410 5405 5400 5394 5389 5384 5378 5373 5366 5359 5353 5347 5341 5335 5329 5323 5317 5312 5307 5303 5299 5296 5292 5288 5285 5282 5279 5275 5271 5268 5264 5261 5258 5256 5253 5252
5432 5427 5422 5416 5411 5405 5400 5395 5389 5384 5378 5373 5368 5362 5357 5352 5345 5338 5332 5327 5321 5316 5310 5305 5300 5296 5291 5287 5283 5279 5276 5272 5268 5264 5260 5256 5252 5248 5244 5240 5238 5236 5233
5415 5410 5405 5400 5394 5389 5384 5379 5373 5368 5363 5357 5352 5347 5341 5336 5330 5323 5317 5312 5306 5301 5296 5291 5287 5283 5279 5276 5272 5267 5263 5259 5254 5249 5244 5240 5236 5232 5228 5225 5221 5219 5216
5398 5393 5388 5383 5378 5373 5368 5363 5357 5352 5346 5340 5335 5329 5324 5319 5314 5308 5303 5297 5292 5287 5282 5278 5274 5271 5267 5264 5260 5256 5251 5246 5241 5236 5231 5226 5222 5218 5215 5211 5208 5204 5200
5381 5376 5371 5366 5361 5356 5351 5346 5340 5335 5329 5323 5317 5311 5307 5302 5297 5292 5287 5283 5278 5273 5269 5265 5262 5259 5256 5253 5249 5245 5240 5235 5229 5224 5219 5214 5210 5206 5203 5199 5195 5191 5187
5364 5359 5354 5349 5344 5339 5334 5328 5323 5317 5311 5305 5298 5292 5288 5284 5280 5275 5272 5269 5264 5260 5256 5253 5251 5248 5245 5242 5238 5234 5229 5224 5219 5214 5209 5204 5200 5196 5192 5188 5184 5180 5175
5347 5342 5337 5332 5326 5321 5315 5309 5303 5297 5291 5286 5280 5273 5268 5266 5262 5259 5256 5254 5251 5248 5245 5242 5240 5237 5235 5232 5228 5224 5220 5215 5210 5205 5200 5195 5191 5187 5183 5179 5174 5170 5165
5329 5324 5319 5314 5308 5302 5295 5289 5282 5276 5270 5264 5259 5253 5249 5247 5245 5242 5240 5239 5237 5235 5234 5232 5229 5227 5225 5223 5219 5215 5211 5206 5202 5197 5192 5187 5183 5178 5174 5170 5166 5161 5156
5311 5306 5301 5295 5288 5282 5275 5267 5260 5253 5246 5241 5236 5232 5229 5228 5227 5226 5225 5224 5224 5223 5222 5221 5219 5218 5216 5214 5211 5207 5203 5199 5194 5189 5184 5180 5175 5171 5167 5162 5158 5154 5149
5293 5287 5281 5275 5268 5261 5253 5245 5237 5229 5222 5217 5212 5210 5208 5209 5209 5210 5211 5211 5211 5211 5211 5211 5210 5209 5207 5205 5203 5200 5196 5192 5187 5183 5178 5174 5169 5165 5161 5156 5152 5147 5143
5274 5268 5262 5255 5248 5239 5231 5222 5213 5205 5198 5193 5190 5188 5189 5190 5192 5195 5197 5198 5199 5200 5201 5201 5201 5200 5199 5197 5194 5191 5188 5184 5180 5176 5172 5168 5164 5159 5155 5151 5147 5142 5138
5255 5249 5243 5235 5227 5218 5209 5200 5191 5183 5176 5171 5169 5169 5170 5173 5177 5180 5183 5186 5188 5190 5191 5192 5192 5192 5190 5189 5186 5183 5180 5177 5173 5169 5165 5162 5158 5154 5150 5146 5142 5138 5134
5237 5231 5224 5216 5207 5198 5189 5180 5171 5163 5157 5153 5151 5152 5155 5159 5163 5167 5171 5174 5177 5180 5182 5183 5184 5183 5182 5181 5178 5176 5172 5169 5166 5162 5159 5155 5152 5148 5145 5141 5138 5135 5131